KUIPER-00040 (64501 NORAD) Tracking and Keplerian Element Data

This shows tracking and keplerian element data for the satellite.

Feedback or suggestion? Click here.




ElementValue
Catalog64501
NameKUIPER-00040
Epoch Orbit2812
Epoch Day354.06758151
Epoch Year2025
RAAN236.3232
Inclination51.9003
Eccentricity0.0016929
Argument of Perigee5.5056
Mean Anonmoly354.609
Mean Motion14.79825634
Decay Rate0.0003663
L11 64501U 25134B 25354.06758151 .00036630 00000+0 48093-2 0 9996
L22 64501 51.9003 236.3232 0016929 5.5056 354.6090 14.79825634 28124



Live tracking and technical data element details for KUIPER-00040 (NORAD 64501). KUIPER-00040 can be tracked NOW for your location showing map with azimuth and elevation plus other details from your city location.







IsCatalogInMostPopularTable: catalog: 64501, numindb: 11
Update: records affected: 1



GetName: 64501 KUIPER-00040

Hit Count: updated at: Tue, 21 Apr 2026 19:16:31 GMT